This demonstration page uses our WeatherBlox Daily Observations layout. Learn more.

Left ArrowRight Arrow

Hourly Observations for January 4, 2020

Temp ( °F °C ) Dew Point ( °F °C ) Humidity (%) Winds ( mph kmh ) Pressure ( in mb ) Visibility ( mi km ) Precip ( " mm )
12:28 am 00:28 Cloudy with Light Rain 58 14.4 57 13.9 97 97 WSW 3 6 29.90 1012 10 16 0.00 0.00
12:41 am 00:41 Cloudy with Light Rain 58 14.4 57 13.9 97 97 S 3 6 29.89 1012 10 16 0.00 0.00
12:53 am 00:53 Cloudy with Light Rain 58 14.4 57 13.9 97 97 Calm 29.88 1012 10 16 0.01 0.25
1:03 am 01:03 Cloudy with Light Rain 58 14.4 57 13.9 97 97 Calm 29.90 1012 10 16 0.00 0.00
1:18 am 01:18 Cloudy with Light Rain 58 14.4 57 13.9 97 97 Calm 29.90 1012 10 16 0.00 0.00
1:25 am 01:25 Cloudy with Light Rain 58 14.4 57 13.9 97 97 WSW 3 6 29.90 1012 10 16 0.00 0.00
1:53 am 01:53 Cloudy with Light Rain 57 13.9 56 13.3 96 96 SW 3 6 29.88 1012 10 16 0.01 0.25
2:44 am 02:44 Cloudy with Rain 57 13.9 55 12.8 93 93 Calm 29.90 1012 7 11 0.06 1.52
2:51 am 02:51 Cloudy with Rain 57 14 55 13 94 94 WSW 5 7 29.90 1012 5 8 0.07 1.78
2:53 am 02:53 Cloudy with Rain 57 13.9 55 12.8 93 93 WSW 3 6 29.88 1012 5 8 0.08 2.03
3:04 am 03:04 Cloudy with Rain 57 13.9 55 12.8 93 93 SW 5 7 29.90 1012 4 6 0.03 0.76
3:45 am 03:45 Cloudy with Light Rain 56 13.3 55 12.8 97 97 SW 3 6 29.90 1013 8 13 0.09 2.29
3:53 am 03:53 Cloudy with Light Rain 56 13.3 55 12.8 97 97 VRB 3 6 29.86 1011 10 16 0.09 2.29
4:26 am 04:26 Cloudy 56 13.3 55 12.8 97 97 SSW 3 6 29.87 1011 10 16 0.00 0.00
4:53 am 04:53 Cloudy with Light Rain 56 13.3 55 12.8 97 97 WSW 3 6 29.86 1011 10 16 0.00 0.00
5:18 am 05:18 Cloudy 56 13.3 55 12.8 97 97 SSW 5 7 29.88 1012 10 16 0.00 0.00
5:53 am 05:53 Mostly Cloudy 56 13.3 54 12.2 93 93 SW 6 9 29.87 1012 10 16 0.01 0.25
6:27 am 06:27 Mostly Cloudy 56 13.3 54 12.2 93 93 SW 5 7 29.89 1012 10 16 0.00 0.00
6:53 am 06:53 Partly Cloudy 56 13.3 54 12.2 93 93 SSW 6 9 29.87 1012 10 16 0.00 0.00
7:22 am 07:22 Mostly Cloudy 55 12.8 54 12.2 96 96 W 8 13 29.90 1013 10 16 0.00 0.00
7:48 am 07:48 Mostly Cloudy 55 13 54 12 94 94 SW 6 9 29.89 1012 10 16 0.00 0.00
7:53 am 07:53 Partly Cloudy 55 12.8 52 11.1 90 90 SW 7 11 29.88 1012 10 16 0.00 0.00
8:53 am 08:53 Mostly Cloudy 55 12.8 52 11.1 90 90 WSW 6 9 29.89 1012 10 16 0.00 0.00
9:11 am 09:11 Mostly Cloudy 55 12.8 52 11.1 90 90 SW 7 11 29.91 1013 10 16 0.00 0.00
9:25 am 09:25 Cloudy with Rain 55 12.8 53 11.7 93 93 W 8 13 29.93 1014 2 3 0.03 0.76
9:32 am 09:32 Cloudy with Rain 55 12.8 51 10.6 87 87 W 16 26 29.93 1014 2 3 0.04 1.02
9:39 am 09:39 Cloudy with Light Rain 55 12.8 51 10.6 87 87 W 8 13 29.94 1014 4 6 0.04 1.02
9:53 am 09:53 Cloudy 55 12.8 52 11.1 90 90 W 7 11 29.93 1014 10 16 0.04 1.02
10:53 am 10:53 Mostly Cloudy 56 13.3 49 9.4 77 77 W 13 20 29.95 1014 10 16 0.00 0.00
11:53 am 11:53 Mostly Cloudy 55 12.8 47 8.3 74 74 W 17 28 29.95 1014 10 16 0.01 0.25
12:53 pm 12:53 Sunny 55 12.8 40 4.4 57 57 WNW 20 31 29.95 1014 10 16 0.00 0.00
1:53 pm 13:53 Sunny 56 13.3 33 0.6 42 42 WNW 14 22 29.93 1013 10 16 0.00 0.00
2:53 pm 14:53 Mostly Sunny 55 12.8 32 0 42 42 WNW 16 26 29.94 1014 10 16 0.00 0.00
3:35 pm 15:35 Mostly Cloudy 51 10.6 33 0.6 50 50 WNW 17 28 29.99 1016 10 16 0.00 0.00
3:53 pm 15:53 Cloudy 51 10.6 34 1.1 52 52 NW 18 30 29.98 1015 10 16 0.00 0.00
4:53 pm 16:53 Mostly Cloudy 49 9.4 31 -0.6 50 50 WNW 21 33 30.01 1016 10 16 0.00 0.00
5:53 pm 17:53 Partly Cloudy 46 7.8 28 -2.2 50 50 WNW 18 30 30.06 1018 10 16 0.00 0.00
6:53 pm 18:53 Mostly Clear 44 6.7 27 -2.8 51 51 WNW 18 30 30.11 1020 10 16 0.00 0.00
7:53 pm 19:53 Partly Cloudy 41 5 26 -3.3 55 55 NW 15 24 30.16 1021 10 16 0.00 0.00
8:53 pm 20:53 Partly Cloudy 40 4.4 25 -3.9 55 55 NW 13 20 30.20 1023 10 16 0.00 0.00
9:53 pm 21:53 Mostly Clear 38 3.3 24 -4.4 57 57 WNW 12 19 30.23 1024 10 16 0.00 0.00
10:53 pm 22:53 Mostly Clear 37 2.8 24 -4.4 59 59 NW 9 15 30.24 1024 10 16 0.00 0.00
11:53 pm 23:53 Clear 37 2.8 24 -4.4 59 59 NW 7 11 30.24 1024 10 16 0.00 0.00

Powered by AerisWeather